Weather in Kusye-Aleksandrovskiy

Russia / Perm Krai     58°17′10″N   58°22′22″E
temp.,
°C
wind,
m/s
gust,
m/s
humid.,
%
clouds,
%
prec.,
mm/h
press.,
hPa
HPBL,
m
12 may, wed
wed1223:00+12nnw128242 0.0 102811
02:00+10n22855 0.0 102919
05:00+9nw117897 0.0 102910
08:00+13n135653 0.0 1030260
11:00+19nnw234087 0.0 1029899
14:00+22nnw22365 0.0 10281711
17:00+22nw223699 0.0 10281839
20:00+18nw2256100 0.0 102713
13 may, thu
thu1323:00+14nw116647 0.0 102811
02:00+12wnw117142 0.0 102810
05:00+11w1172100 0.0 102810
08:00+16w125686 0.0 1028171
11:00+22nw23425 0.0 1028955
14:00+24wnw343424 0.0 10271628
17:00+25nw23335 0.0 10261830
20:00+21nw11509 0.0 102611
14 may, fri
fri1423:00+16s11610 0.0 102611
02:00+14ssw11675 0.0 102611
05:00+13ssw11705 0.0 102611
08:00+19sw245440 0.0 1026250
11:00+24wsw46375 0.0 10251591
14:00+26sw573124 0.0 10232259
17:00+26wsw583039 0.0 10222154
20:00+22sw4104618 0.0 1021473
15 may, sat
sat1523:00+19sw4135813 0.0 1021393
02:00+16wsw3116999 0.0 1021275
05:00+14sw238198 0.1 102260
08:00+19wsw366024 0.0 1021346
11:00+24wsw4842100 0.0 10211091
14:00+27wsw61029100 0.0 10202285
17:00+27wsw5113055 0.0 10192603
20:00+23wsw5114348 0.0 1018697
16 may, sun
sun1623:00+17sw2106652 0.0 1019206
02:00+16sw297199 0.0 1019163
05:00+16sw3136539 0.0 1019316
08:00+20wsw4135299 0.0 1019512
11:00+25wsw593166 0.0 10181336
14:00+28wsw69225 0.0 10172436
17:00+28wsw510265 0.0 10163120
20:00+24sw39443 0.0 1015316